Huron, SD

3:08 PM CDT on August 26, 2016 (GMT -0500)
Huron Regional

Weather History for KHON - April, 2014

Change the Weather History Date:

Saturday, April 5, 2014

  Actual Average Record
Temperature  
Mean Temperature 49 °F 42 °F  
Max Temperature 69 °F 54 °F 85 °F (1992)
Min Temperature 28 °F 30 °F 7 °F (1926)
Degree Days  
Heating Degree Days 16 23  
Month to date heating degree days 151 120  
Since 1 July heating degree days 7572 6939  
Cooling Degree Days 0 0  
Month to date cooling degree days 0 0  
Year to date cooling degree days 0 0  
Moisture  
Dew Point 28 °F    
Average Humidity 54    
Maximum Humidity 85    
Minimum Humidity 22    
Precipitation  
Precipitation 0.00 in 0.07 in 1.05 in (1997)
Month to date precipitation T 0.32  
Year to date precipitation 1.03 2.88  
Snow  
Snow 0.00 in 0.10 in 12.40 in (1938)
Month to date snowfall T 0.9  
Since 1 July snowfall 26.4 40.8  
Snow Depth 0.00 in    
Sea Level Pressure  
Sea Level Pressure 29.90 in    
Wind  
Wind Speed 14 mph (South)    
Max Wind Speed 25 mph    
Max Gust Speed 35 mph    
Visibility 10 miles    
Events      
T = Trace of Precipitation, MM = Missing Value Source: NWS Daily Summary

Daily Weather History Graph

Daily Weather History Graph

Search for Another Location

Airport or City:

Trip Planner

Search our weather history database for the weather conditions in past years. The results will help you decide how hot, cold, wet, or windy it might be!

Date:

Astronomy

Apr. 05, 2014 Rise Set
Actual Time 7:06 AM CDT 8:05 PM CDT
Civil Twilight 6:37 AM CDT 8:34 PM CDT
Nautical Twilight 6:01 AM CDT 9:10 PM CDT
Astronomical Twilight 5:24 AM CDT 9:47 PM CDT
Moon 11:07 AM CDT (4/5) 1:24 AM CDT (4/5)
Length of Visible Light 13h 57m
Length of Day
12h 58m
Waxing Crescent, 34% of the Moon is Illuminated
Apr 5
Waxing Crescent
Apr 7
First Quarter
Apr 15
Full
Apr 22
Last Quarter
Apr 29
New

Hourly Weather History & Observations

Time (CDT) Temp. Windchill Dew Point Humidity Pressure Visibility Wind Dir Wind Speed Gust Speed Precip Events Conditions
12:55 AM 30.0 °F 21.7 °F 23.0 °F 75% 30.06 in 10.0 mi SSE 9.2 mph - N/A   Clear
1:55 AM 28.9 °F 20.4 °F 23.0 °F 78% 30.06 in 10.0 mi South 9.2 mph - N/A   Clear
2:55 AM 28.0 °F 18.6 °F 23.0 °F 81% 30.05 in 10.0 mi SSE 10.4 mph - N/A   Clear
3:55 AM 28.0 °F 18.1 °F 23.0 °F 81% 30.03 in 10.0 mi SSE 11.5 mph - N/A   Clear
4:55 AM 28.0 °F 18.1 °F 24.1 °F 85% 30.01 in 10.0 mi SSE 11.5 mph - N/A   Clear
5:55 AM 28.0 °F 17.5 °F 24.1 °F 85% 29.99 in 10.0 mi SSE 12.7 mph - N/A   Clear
6:55 AM 28.9 °F 18.6 °F 25.0 °F 85% 29.98 in 10.0 mi SSE 12.7 mph 21.9 mph N/A   Clear
7:55 AM 30.9 °F 20.7 °F 26.1 °F 82% 29.96 in 9.0 mi SSE 13.8 mph 21.9 mph N/A   Clear
8:55 AM 35.1 °F 25.5 °F 28.0 °F 76% 29.96 in 10.0 mi South 15.0 mph 24.2 mph N/A   Mostly Cloudy
9:55 AM 39.0 °F 29.9 °F 28.9 °F 67% 29.94 in 10.0 mi South 17.3 mph 24.2 mph N/A   Mostly Cloudy
10:55 AM 48.0 °F - 28.9 °F 48% 29.91 in 10.0 mi South 23.0 mph 31.1 mph N/A   Clear
11:55 AM 48.9 °F - 28.9 °F 46% 29.91 in 10.0 mi South 20.7 mph 33.4 mph N/A   Clear
12:55 PM 55.0 °F - 30.0 °F 38% 29.87 in 10.0 mi South 17.3 mph 26.5 mph N/A   Clear
1:55 PM 61.0 °F - 30.0 °F 31% 29.83 in 10.0 mi South 16.1 mph 28.8 mph N/A   Clear
2:55 PM 64.0 °F - 30.0 °F 28% 29.81 in 10.0 mi South 20.7 mph 31.1 mph N/A   Clear
3:55 PM 66.9 °F - 28.0 °F 23% 29.78 in 10.0 mi SSW 18.4 mph 29.9 mph N/A   Clear
4:55 PM 68.0 °F - 28.0 °F 22% 29.76 in 10.0 mi South 15.0 mph 27.6 mph N/A   Clear
5:55 PM 64.9 °F - 28.0 °F 25% 29.76 in 10.0 mi South 17.3 mph 24.2 mph N/A   Partly Cloudy
6:55 PM 63.0 °F - 30.0 °F 29% 29.77 in 10.0 mi South 11.5 mph - N/A   Partly Cloudy
7:55 PM 57.9 °F - 30.0 °F 35% 29.78 in 10.0 mi SW 5.8 mph - N/A   Clear
8:55 PM 53.1 °F - 30.0 °F 41% 29.80 in 10.0 mi South 6.9 mph - N/A   Clear
9:55 PM 51.1 °F - 37.9 °F 61% 29.83 in 10.0 mi NNW 15.0 mph - N/A   Clear
10:55 PM 46.9 °F - 36.0 °F 66% 29.84 in 10.0 mi NNW 10.4 mph - N/A   Clear
11:55 PM 39.0 °F 33.4 °F 33.1 °F 79% 29.86 in 10.0 mi WNW 8.1 mph - N/A   Clear